OpenBCM V2.0.2 (Linux)

Packet Radio Mailbox

IZ3LSV

[San Dona' di P. JN]

 Login: GUEST





  
CX2SA  > KEP      11.01.20 00:46l 86 Lines 3612 Bytes #999 (0) @ ARL
BID : ARLK003
Read: GUEST
Subj: ARLK003 Keplerian data
Path: IZ3LSV<IQ2LB<IQ5KG<I0OJJ<GB7CIP<N7HPX<WH6FQE<N3HYM<CX2SA
Sent: 200110/2232Z @:CX2SA.SAL.URY.SOAM #:22689 [Salto] FBB7.00e $:ARLK003
From: CX2SA@CX2SA.SAL.URY.SOAM
To  : KEP@ARL


ZCZC SK03
QST de W1AW
Keplerian Bulletin 3  ARLK003
From ARRL Headquarters
Newington, CT  January 10, 2020
To all radio amateurs

SB KEP ARL ARLK003
ARLK003 Keplerian data

Special thanks to AMSAT-NA (AMSAT.ORG) for the following Keplerian
data.

Decode 2-line elsets with the following key:
1 AAAAAU 00  0  0 BBBBB.BBBBBBBB  .CCCCCCCC  00000-0  00000-0 0  DDDZ
2 AAAAA EEE.EEEE FFF.FFFF GGGGGGG HHH.HHHH III.IIII JJ.JJJJJJJJKKKKKZ
KEY: A-CATALOGNUM B-EPOCHTIME C-DECAY D-ELSETNUM E-INCLINATION F-RAAN
G-ECCENTRICITY H-ARGPERIGEE I-MNANOM J-MNMOTION K-ORBITNUM Z-CHECKSUM

0 AO-07
1 7530U 74089B   20009.80818385 -.00000054  00000-0 -52966-4 0  9998
2 7530 101.7769 340.5936 0012092 312.7875 162.8841 12.53641512 66221
0 FO-29
1 24278U 96046B   20009.59785755 -.00000044  00000-0 -11383-4 0  9990
2 24278  98.5650 140.5225 0351288  68.9739 294.8597 13.53095180155512
0 ISS
1 25544U 98067A   20010.67441063  .00000178  00000-0  11260-4 0  9994
2 25544  51.6455  52.8003 0005192 119.1607 339.2932 15.49549607207446
0 SO-50
1 27607U 02058C   20009.96891194 -.00000016  00000-0  18467-4 0  9993
2 27607  64.5547 141.9800 0067087 215.7015 143.9593 14.75601161917325
0 CO-55
1 27844U 03031E   20010.50726707  .00000041  00000-0  38018-4 0  9998
2 27844  98.6833  20.6318 0010353 150.5271 209.6493 14.22215211857540
0 RS-22
1 27939U 03042A   20010.37885208 -.00000002  00000-0  83270-5 0  9991
2 27939  98.0662 147.5545 0013978 133.2993 226.9379 14.66829276870691
0 RS-30
1 32953U 08025A   20010.28079867  .00000037  00000-0  19437-3 0  9994
2 32953  82.5036  16.9034 0020133  43.6598 316.6070 12.43093532527857
0 KKS-1
1 33499U 09002H   20010.15664119  .00000073  00000-0  18772-4 0  9994
2 33499  98.3320 220.2539 0007893 273.3634  86.6671 14.75494676589529
0 AO-71
1 37854U 11061E   20010.49588060  .00000940  00000-0  55267-4 0  9991
2 37854 101.7136  19.6983 0159483 174.3648 185.9408 15.06912628447984
0 AO-73
1 39444U 13066AE  20010.09757016  .00000247  00000-0  36461-4 0  9995
2 39444  97.5572  19.1614 0059444  73.8950 286.8798 14.82041691330359
0 UKUBE 1
1 40074U 14037F   20010.33225295  .00000242  00000-0  36102-4 0  9998
2 40074  98.4493 189.2204 0003236 277.9292  82.1556 14.84170977298152
0 XW-2A
1 40903U 15049E   20010.53766663  .00001863  00000-0  44825-4 0  9995
2 40903  97.3123  59.2175 0014956 116.7525 349.4053 15.42507918241977
0 XW-2F
1 40910U 15049M   20010.49008433  .00001045  00000-0  55196-4 0  9997
2 40910  97.4652  16.2558 0014260 187.7772 324.1636 15.17641659238225
0 XW-2B
1 40911U 15049N   20010.50734602  .00000472  00000-0  28000-4 0  9991
2 40911  97.4729  14.6306 0013401 197.6150 314.4428 15.16025651238082
0 IO-86
1 40931U 15052B   20008.73385127  .00000640  00000-0  00000+0 0  9995
2 40931   5.9917  41.4791 0013162 160.0202 200.3725 14.76621920231463
0 CAS-4B
1 42759U 17034B   20010.57075005  .00000052  00000-0  16676-4 0  9991
2 42759  43.0171 179.9349 0009945 108.7254 328.0408 15.09717784141955
0 CAS-4A
1 42761U 17034D   20010.51949505  .00000256  00000-0  29041-4 0  9999
2 42761  43.0171 179.6183 0010379 109.5783 306.5254 15.09797516141940
0 AO-91
1 43017U 17073E   20009.50512907 +.00000307 +00000-0 +29707-4 0  9992
2 43017 097.7268 287.8860 0256706 211.1517 147.4263 14.78766833115523
0 AO-92
1 43137U 18004AC  20009.99553705  .00000940  00000-0  42017-4 0  9996
2 43137  97.4657  82.1085 0007666 252.6921 107.3477 15.23814447110756

Keplerian bulletins are transmitted twice weekly from W1AW.  The
next scheduled transmission of these data will be Tuesday, January
14, 2020, at 2230z on Baudot and BPSK31.
NNNN


Read previous mail | Read next mail


 04.05.2026 06:47:03lGo back Go up